Time,TemperatureF,DewpointF,PressureIn,WindDirection,WindDirectionDegrees,WindSpeedMPH,WindSpeedGustMPH,Humidity,HourlyPrecipIn,Conditions,Clouds,dailyrainin,SoftwareType,DateUTC
2013-02-22 00:00:00,18.0,17.0,-100.00,SSW,212,24.0,40.0,97,-99.99,,,-99.99,,2013-02-22 08:00:00,
2013-02-22 01:00:00,20.0,19.0,-100.00,NW,325,22.0,32.0,97,-99.99,,,-99.99,,2013-02-22 09:00:00,
2013-02-22 02:00:00,19.0,18.0,-100.00,West,269,21.0,32.0,97,-99.99,,,-99.99,,2013-02-22 10:00:00,
2013-02-22 03:00:00,20.0,19.0,-100.00,WSW,255,15.0,27.0,97,-99.99,,,-99.99,,2013-02-22 11:00:00,
2013-02-22 04:00:00,21.0,21.0,-100.00,South,189,17.0,31.0,98,-99.99,,,-99.99,,2013-02-22 12:00:00,
2013-02-22 05:00:00,23.0,23.0,-100.00,South,178,16.0,33.0,99,-99.99,,,-99.99,,2013-02-22 13:00:00,
2013-02-22 06:00:00,23.0,23.0,-100.00,WSW,239,13.0,25.0,99,-99.99,,,-99.99,,2013-02-22 14:00:00,
2013-02-22 07:00:00,23.0,23.0,-100.00,SW,230,14.0,29.0,98,-99.99,,,-99.99,,2013-02-22 15:00:00,
2013-02-22 08:00:00,24.0,24.0,-100.00,SW,228,24.0,44.0,99,-99.99,,,-99.99,,2013-02-22 16:00:00,
2013-02-22 09:00:00,25.0,25.0,-100.00,SSW,195,29.0,46.0,99,-99.99,,,-99.99,,2013-02-22 17:00:00,
2013-02-22 10:00:00,25.0,25.0,-100.00,WSW,238,31.0,54.0,99,-99.99,,,-99.99,,2013-02-22 18:00:00,
2013-02-22 10:52:00,25.0,25.0,-100.00,WSW,238,31.0,54.0,99,-99.99,,,-99.99,,2013-02-22 18:52:00,
2013-02-22 11:00:00,24.0,24.0,-100.00,WSW,248,33.0,54.0,99,-99.99,,,-99.99,,2013-02-22 19:00:00,
2013-02-22 12:00:00,25.0,25.0,-100.00,SW,233,32.0,58.0,99,-99.99,,,-99.99,,2013-02-22 20:00:00,
2013-02-22 12:52:00,25.0,25.0,-100.00,SW,233,32.0,58.0,99,-99.99,,,-99.99,,2013-02-22 20:52:00,
2013-02-22 13:00:00,24.0,24.0,-100.00,SSW,212,25.0,35.0,99,-99.99,,,-99.99,,2013-02-22 21:00:00,
2013-02-22 14:00:00,24.0,24.0,-100.00,SW,227,29.0,44.0,99,-99.99,,,-99.99,,2013-02-22 22:00:00,
2013-02-22 15:00:00,25.0,25.0,-100.00,WSW,249,27.0,40.0,99,-99.99,,,-99.99,,2013-02-22 23:00:00,
2013-02-22 16:00:00,23.0,23.0,-100.00,SW,235,14.0,31.0,99,-99.99,,,-99.99,,2013-02-23 00:00:00,
2013-02-22 17:00:00,21.0,20.0,-100.00,West,277,20.0,58.0,97,-99.99,,,-99.99,,2013-02-23 01:00:00,
2013-02-22 18:00:00,19.0,18.0,-100.00,North,8,29.0,58.0,97,-99.99,,,-99.99,,2013-02-23 02:00:00,
2013-02-22 19:00:00,17.0,16.0,-100.00,South,169,23.0,50.0,97,-99.99,,,-99.99,,2013-02-23 03:00:00,
2013-02-22 20:00:00,16.0,15.0,-100.00,WNW,300,28.0,63.0,96,-99.99,,,-99.99,,2013-02-23 04:00:00,
2013-02-22 21:00:00,15.0,14.0,-100.00,WNW,293,21.0,44.0,96,-99.99,,,-99.99,,2013-02-23 05:00:00,
2013-02-22 22:00:00,14.0,13.0,-100.00,North,8,20.0,38.0,96,-99.99,,,-99.99,,2013-02-23 06:00:00,
2013-02-22 23:00:00,13.0,12.0,-100.00,West,262,24.0,41.0,95,-99.99,,,-99.99,,2013-02-23 07:00:00,